Location: Buffign�court
(47.8126°N, 6.0176°E)
Time: 18:58:37
(UTC+00:00)

Cosmos 1452 Rocket - Pass Details

Date: 16 June 2021
Orbit: 768 x 774 km, 74.1° (Epoch: 01 August)

Event Time Altitude Azimuth Distance (km) Brightness Sun altitude
Rises 20:54:33 0° 202° (SSW) 3,237 6.4 -10.0°
Reaches altitude 10° 20:56:55 10° 203° (SSW) 2,314 5.7 -10.3°
Maximum altitude 21:02:11 85° 291° (WNW) 783 3.6 -10.8°
Drops below altitude 10° 21:07:30 10° 22° (NNE) 2,328 6.5 -11.3°
Sets 21:09:53 0° 23° (NNE) 3,259 7.2 -11.5°
